Location: Mahannah Oil Field
(37.4664°N, 96.6003°W)
Time: 20:38:47
(UTC+00:00)

Vanguard 3 - Visible Passes

Search period start: 21 January 2021 00:00
Search period end: 31 January 2021 00:00
Orbit: 508 x 3262 km, 33.3° (Epoch: 21 January)

Date Brightness Start Highest point End Pass type
(mag) Time Alt. Az. Time Alt. Az. Time Alt. Az.
21 Jan 9.4 09:49:09 35° SE 09:49:09 35° SE 09:57:23 10° E visible
21 Jan 9.0 11:53:43 24° WSW 11:59:50 71° S 12:15:09 10° E visible
22 Jan 10.6 08:39:22 11° E 08:39:22 11° E 08:39:41 10° E visible
22 Jan 8.4 10:43:56 55° S 10:45:00 59° SSE 10:57:23 10° E visible
22 Jan 9.3 12:48:50 10° W 12:58:25 73° S 13:15:14 10° ESE visible
23 Jan 9.6 09:34:07 29° ESE 09:34:07 29° ESE 09:40:01 10° E visible
23 Jan 8.8 11:38:40 33° WSW 11:43:06 71° S 11:57:21 10° E visible
24 Jan 8.4 10:28:49 60° SSE 10:28:49 60° SSE 10:39:47 10° E visible
24 Jan 9.1 12:33:22 13° W 12:41:33 70° S 12:57:19 10° ESE visible
25 Jan 9.9 09:18:57 23° E 09:18:57 23° E 09:22:44 10° E visible
25 Jan 8.4 11:23:31 44° WSW 11:26:28 70° S 11:39:37 10° E visible
26 Jan 8.6 10:13:38 51° ESE 10:13:38 51° ESE 10:22:18 10° E visible
26 Jan 9.0 12:18:12 18° W 12:24:49 67° S 12:39:25 10° ESE visible
27 Jan 10.2 09:03:46 16° E 09:03:46 16° E 09:05:35 10° E visible
27 Jan 8.1 11:08:19 56° SW 11:09:56 68° S 11:21:58 10° E visible
28 Jan 9.0 09:58:26 39° ESE 09:58:26 39° ESE 10:04:56 10° E visible
28 Jan 8.8 12:02:59 24° W 12:08:09 62° S 12:21:32 10° ESE visible
29 Jan 10.5 08:48:33 10° E 08:48:33 10° E 08:48:33 10° E visible
29 Jan 8.0 10:53:06 64° SSW 10:53:28 65° S 11:04:23 10° ESE visible
29 Jan 9.4 12:58:23 10° W 13:06:31 48° SSW 13:20:31 10° SE visible
30 Jan 9.4 09:43:14 28° ESE 09:43:14 28° ESE 09:47:41 10° E visible
30 Jan 8.6 11:47:47 30° WSW 11:51:35 56° S 12:03:41 10° ESE visible
